Location: Carrer del Canonge
(41.4901°N, 2.2931°E)
Time: 21:42:22
(UTC+00:00)

CZ-2D R/B - Visible Passes

Search period start: 28 November 2021 00:00
Search period end: 08 December 2021 00:00
Orbit: 519 x 536 km, 97.4° (Epoch: 27 November)

Date Brightness Start Highest point End Pass type
(mag) Time Alt. Az. Time Alt. Az. Time Alt. Az.
28 Nov 3.9 17:07:39 10° SE 17:11:08 33° ENE 17:14:37 10° N visible
28 Nov 6.3 18:43:02 10° SW 18:45:32 17° W 18:48:03 10° NW visible
29 Nov 4.3 06:14:39 10° NNE 06:18:22 51° E 06:22:02 10° S visible
29 Nov 4.2 16:56:56 10° SE 17:00:07 25° ENE 17:03:19 10° NNE visible
29 Nov 5.8 18:31:21 10° SSW 18:34:23 22° W 18:37:26 10° NW visible
30 Nov 5.0 06:03:42 10° NNE 06:07:15 36° E 06:10:45 10° SSE visible
30 Nov 5.3 18:19:51 10° SSW 18:23:15 29° W 18:26:38 10° NW visible
01 Dec 5.6 05:52:51 10° NE 05:56:07 27° E 05:59:22 10° SSE visible
01 Dec 4.6 18:08:30 10° S 18:12:07 40° W 18:15:45 10° NNW visible
02 Dec 6.2 05:42:06 10° NE 05:44:58 20° E 05:47:48 10° SE visible
02 Dec 3.9 17:57:14 10° S 18:01:00 55° W 18:04:47 10° NNW visible
03 Dec 6.4 05:31:32 10° NE 05:33:47 15° E 05:36:02 10° SE visible
03 Dec 3.3 17:46:05 10° S 17:49:55 78° WSW 17:53:45 10° NNW visible
04 Dec 6.8 05:21:28 10° ENE 05:22:36 11° E 05:23:44 10° ESE visible
04 Dec 3.1 17:35:01 10° SSE 17:38:49 76° ENE 17:42:40 10° N visible
05 Dec 3.3 17:24:01 10° SSE 17:27:46 55° ENE 17:31:31 10° N visible
05 Dec 6.8 19:01:59 10° W 19:02:24 10° W 19:02:48 10° W visible
06 Dec 3.3 06:31:14 10° NNE 06:35:03 86° ESE 06:38:50 10° SSW visible
06 Dec 3.6 17:13:08 10° SE 17:16:43 39° ENE 17:20:18 10° N visible
06 Dec 6.5 18:49:10 10° SW 18:51:12 14° W 18:53:14 10° WNW visible
07 Dec 3.8 06:20:11 10° NNE 06:23:57 62° E 06:27:42 10° S visible
07 Dec 4.0 17:02:20 10° SE 17:05:40 29° ENE 17:09:01 10° N visible
07 Dec 6.1 18:37:17 10° SW 18:40:01 19° W 18:42:45 10° NW visible
